FW0639 Weather Reports


time (UTC)temp
C
wind
direction
speed
KPH
gust
KPH
rain 1hr
cm
rain 24hr
cm
rain mn
cm
humidity
%
barometer
mb
20260509025510 17 340 0.0 4.8 0.00 0.00 0.00 34 1003.2
20260509024502 17 340 1.6 6.4 0.00 0.00 0.00 34 1002.9
20260509023428 17 341 0.0 6.4 0.00 0.00 0.00 34 1002.8
20260509022409 18 340 0.0 4.8 0.00 0.00 0.00 34 1002.7
20260509021414 18 339 0.0 3.2 0.00 0.00 0.00 34 1002.6
20260509020426 18 339 0.0 6.4 0.00 0.00 0.00 33 1002.6
20260509015445 18 338 0.0 6.4 0.00 0.00 0.00 32 1002.6
20260509014503 19 339 0.0 3.2 0.00 0.00 0.00 31 1002.6
20260509013519 19 339 1.6 14.5 0.00 0.00 0.00 30 1002.7
20260509012516 20 339 1.6 14.5 0.00 0.00 0.00 29 1002.7
20260509011509 20 339 1.6 11.3 0.00 0.00 0.00 29 1002.7
20260509010503 20 338 1.6 20.9 0.00 0.00 0.00 27 1002.7
20260509004315 20 338 1.6 11.3 0.00 0.00 0.00 26 1002.8
20260509003336 20 340 3.2 17.7 0.00 0.00 0.00 26 1002.8
20260509002308 21 338 3.2 17.7 0.00 0.00 0.00 25 1002.8
20260509001238 21 338 3.2 17.7 0.00 0.00 0.00 25 1002.9
20260509000226 21 340 6.4 22.5 0.00 0.00 0.00 24 1003.0
20260508235231 22 355 4.8 22.5 0.00 0.00 0.00 25 1003.0
20260508224632 22 32 4.8 17.7 0.00 0.00 0.00 27 1003.4
20260508223643 22 105 4.8 19.3 0.00 0.00 0.00 27 1003.5
20260508222634 22 21 4.8 25.7 0.00 0.00 0.00 26 1003.5
20260508221625 22 323 6.4 25.7 0.00 0.00 0.00 25 1003.6
20260508214441 23 51 6.4 22.5 0.00 0.00 0.00 25 1004.1
20260508212249 22 72 4.8 22.5 0.00 0.00 0.00 25 1004.3
20260508211238 22 53 4.8 17.7 0.00 0.00 0.00 27 1004.5
20260508205108 22 38 6.4 20.9 0.00 0.00 0.00 27 1004.7
20260508204124 21 30 3.2 17.7 0.00 0.00 0.00 29 1004.9
20260508203141 21 36 3.2 11.3 0.00 0.00 0.00 34 1004.9
20260508202109 21 338 3.2 16.1 0.00 0.00 0.00 35 1005.2
20260508201133 21 346 4.8 16.1 0.00 0.00 0.00 36 1005.1
20260508200155 21 18 4.8 17.7 0.00 0.00 0.00 33 1005.3
20260508192849 21 1 3.2 16.1 0.00 0.00 0.00 33 1005.9
20260508191901 20 16 3.2 16.1 0.00 0.00 0.00 35 1006.2
20260508190904 20 15 3.2 14.5 0.00 0.00 0.00 33 1006.4
20260508185831 20 338 3.2 14.5 0.00 0.00 0.00 35 1006.5
20260508184815 20 8 3.2 14.5 0.00 0.00 0.00 39 1006.7
20260508183803 20 6 4.8 14.5 0.00 0.00 0.00 39 1006.9
20260508182807 20 15 3.2 12.9 0.00 0.00 0.00 38 1007.1
20260508181750 19 207 3.2 12.9 0.00 0.00 0.00 39 1007.3
20260508180815 19 207 3.2 12.9 0.00 0.00 0.00 38 1007.4
20260508175832 19 203 1.6 12.9 0.00 0.00 0.00 39 1007.5
20260508173718 18 195 4.8 16.1 0.00 0.00 0.00 39 1007.6
20260508172649 18 355 1.6 9.7 0.00 0.00 0.00 40 1007.7
20260508171652 17 14 1.6 9.7 0.00 0.00 0.00 41 1007.8